Regional Weather Roundup
Issued by NWS Sioux Falls, SD

Home | Current Version | Previous Version | Graphics & Text | Print | Product List | Glossary Off
Versions: 1 2 3 4 5 6 7 8 9 10 11 12 13 14 15 16 17 18 19 20 21 22 23 24 25 26 27 28 29 30 31 32 33 34 35 36 37 38 39 40 41 42 43 44 45 46 47 48 49 50

000
ASUS43 KFSD 281910
RWRFSD

WEATHER ROUNDUP FOR SE SOUTH DAKOTA/SW MINNESOTA/NW IOWA
NATIONAL WEATHER SERVICE SIOUX FALLS SD
200 PM CDT FRI JUL 28 2017

NOTE: "FAIR" INDICATES FEW OR NO CLOUDS BELOW 12,000 FEET WITH NO
SIGNIFICANT WEATHER AND OR OBSTRUCTIONS TO VISIBILITY.


SDZ038>040-050-052>070-282000-
SOUTHEAST SOUTH DAKOTA

CITY           SKY/WX    TMP DP  RH WIND       PRES   REMARKS
BROOKINGS      PTSUNNY   78  60  53 S10       30.11F
CHAMBERLAIN    MOSUNNY   84  64  50 S12G17    30.05F
HURON          MOSUNNY   79  63  57 S13G18    30.07F
MADISON        FAIR      75  64  69 E10       30.11S
MITCHELL       CLOUDY    79  65  62 SE8       30.08F
SIOUX FALLS    CLOUDY    80  62  54 SE9       30.09F
WINNER         MOCLDY    86  58  38 SE21      30.04F
YANKTON        CLOUDY    78  65  63 NE8       30.08F
$$

MNZ071-072-080-081-089-090-097-098-282000-
SOUTHWEST MINNESOTA

CITY           SKY/WX    TMP DP  RH WIND       PRES   REMARKS
FAIRMONT       MOSUNNY   80  63  55 CALM      30.10S
JACKSON        MOSUNNY   79  61  53 CALM      30.11F
LUVERNE        CLOUDY    79  57  47 E5        30.10F
MARSHALL       MOSUNNY   81  62  52 SE8       30.10S
MONTEVIDEO     SUNNY     84  63  48 E3        30.10S
PIPESTONE      CLOUDY    79  63  57 S5        30.11F
REDWOOD FALLS  MOSUNNY   82  59  45 CALM      30.09S
TRACY          MOSUNNY   80  63  54 E3        30.11S
WINDOM         CLOUDY    79  61  53 NE5       30.11S
WORTHINGTON    PTSUNNY   78  61  55 NE8       30.11F
$$

IAZ001>003-012>014-020>022-031-032-NEZ013-014-SDZ071-282000-
NORTHWEST IOWA

CITY           SKY/WX    TMP DP  RH WIND       PRES   REMARKS
CHEROKEE       CLOUDY    82  59  45 CALM      30.08S
DENISON        CLOUDY    79  64  61 E7        30.09S
ESTHERVILLE    PTSUNNY   80  62  54 VRB3      30.09S
ORANGE CITY    CLOUDY    79  63  57 CALM      30.10S
SHELDON        CLOUDY    81  61  50 CALM      30.08F
SIOUX CITY     CLOUDY    80  65  59 SE5       30.07F
SPENCER        CLOUDY    83  57  41 VRB6      30.09F
STORM LAKE       N/A     79  63  57 VRB6      30.09S
$$

ABBREVIATIONS USED IN REMARKS
   TC - TEMPERATURE IN CELSIUS
  WCI - WIND CHILL INDEX
   HX - HEAT INDEX
  VSB - VISIBILITY





USA.gov is the U.S. government's official web portal to all federal, state and local government web resources and services.